Flag for Norway Weather past 2 weeks in Vennesla, Norway

Now
55 °F

Passing clouds.


Feels Like: 52 °F
Forecast: 45 / 60 °F
Wind: 14 mph from Northwest

Location: Kristiansand / Kjevik

Current Time: Sep 21, 2014 at 5:08:09 AM

Latest Report: Sep 21, 2014 at 4:20 AM


Visibility: N/A

Pressure: 29.80 "Hg

Humidity: 77%

Dew point: 48 °F

Location of VenneslaLocation

Historic Weather in Vennesla — Graph

°F

Vennesla temperature yesterday

Maximum temperature yesterday: 64 °F (at 1:20 PM)
Minimum temperature yesterday: 45 °F (at 6:20 AM)
Average temperature yesterday: 54 °F

Past Weeks' High & Low Weather Summary

 TemperatureHumidityPressure
High72 °F (Sep 9, 3:20 PM)100% (Sep 6, 11:50 PM)30.45 "Hg (Sep 6, 11:50 PM)
Low45 °F (Sep 20, 6:20 AM)49% (Sep 13, 5:50 PM)29.77 "Hg (Sep 9, 6:50 AM)
Average57 °F84%30.13 "Hg
* Reported Sep 6 3:20 AM — Sep 21 3:50 AM, Vennesla, Weather by CustomWeather, © 2014

Note: Actual official high and low records may vary slightly from our data, if they occured in-between our weather recording intervals... More about our weather records

Advertising

Vennesla weather history for previous 24 hours

 ConditionsComfort  
Time TempWeatherWind HumidityBarometerVisibility
3:50 AM
Sep 21
55 °FPassing clouds.12 mph77%29.83 "HgN/A
3:20 AM57 °FMostly cloudy.10 mph77%29.83 "HgN/A
2:50 AM55 °FPassing clouds.6 mph88%29.83 "HgN/A
2:20 AM55 °FPassing clouds.No wind94%29.83 "HgN/A
1:50 AM55 °FFog.No wind94%29.83 "Hg2 mi
1:20 AM55 °FMostly cloudy.2 mph100%29.86 "Hg4 mi
12:50 AM57 °FFog.3 mph94%29.86 "Hg2 mi
12:20 AM57 °FFog.1 mph94%29.86 "Hg2 mi
11:50 PM
Sep 20
57 °FFog.No wind94%29.86 "Hg2 mi
11:20 PM57 °FPassing clouds.2 mph94%29.86 "Hg2 mi
10:50 PM57 °FLight rain. Passing clouds.2 mph94%29.86 "Hg4 mi
10:20 PM57 °FLight rain. Passing clouds.5 mph94%29.86 "Hg4 mi
9:50 PM57 °FLight rain. Passing clouds.3 mph94%29.89 "Hg6 mi
9:20 PM59 °FLight rain. Passing clouds.3 mph88%29.89 "HgN/A
8:50 PM59 °FLight rain. Partly cloudy.5 mph82%29.89 "HgN/A
8:20 PM59 °FPartly sunny.5 mph82%29.89 "HgN/A
7:50 PM59 °FSunny.5 mph88%29.89 "Hg10 mi
3:20 PM64 °FSunny.8 mph64%29.95 "Hg10 mi
2:50 PM63 °FSunny.7 mph73%29.95 "Hg10 mi
2:20 PM64 °FSunny.8 mph68%29.95 "Hg10 mi
1:50 PM63 °FSunny.8 mph64%29.98 "Hg10 mi
1:20 PM64 °FSunny.7 mph60%29.98 "Hg10 mi
12:50 PM63 °FSunny.3 mph59%29.98 "Hg10 mi
12:20 PM63 °FSunny.3 mph59%29.98 "Hg10 mi
11:50 AM63 °FSunny.2 mph59%29.98 "Hg10 mi
11:20 AM61 °FSunny.1 mph68%29.98 "Hg10 mi
10:50 AM57 °FSunny.2 mph77%30.01 "Hg10 mi
10:20 AM54 °FSunny.3 mph82%30.01 "Hg10 mi
9:50 AM52 °FSunny.5 mph82%30.01 "Hg10 mi
9:20 AM48 °FSunny.6 mph94%30.01 "Hg10 mi
8:50 AM46 °FSunny.6 mph93%30.01 "Hg10 mi
8:20 AM46 °FSunny.6 mph93%30.01 "Hg10 mi
7:50 AM45 °FClear.7 mph100%30.01 "Hg10 mi
7:20 AM45 °FClear.7 mph100%30.01 "Hg10 mi
6:50 AM45 °FClear.7 mph100%30.01 "Hg10 mi
6:20 AM45 °FClear.6 mph100%30.01 "Hg10 mi
5:50 AM46 °FClear.7 mph93%30.01 "Hg10 mi
5:20 AM46 °FCool.6 mph93%30.01 "HgN/A
Weather by CustomWeather, © 2014

See weather overviewHow to use our weather pages